Volver al catálogo

FENGYUN 1C DEB

ActivoSSO
NORAD 29992·DEBRIS·🇨🇳 China

Lanzado May 10, 1999 desde Taiyuan Satellite Launch Center

Loading…

Próximos Pases (próximas 24 horas)

TLE

ActualizadoSource: Space-Track

Época: Sep 14, 2026, 05:00 UTC

1 29992U 99025LS  26257.20891411  .00000103  00000-0  76628-4 0  9991
2 29992  98.7469 250.2320 0089697 105.8342 314.5876 14.11705052 12746

Sigue FENGYUN 1C DEB en tiempo real con AllMySat

Download on the App Store